Regional Weather Roundup
Issued by NWS

Home | Current Version | Previous Version | Text Only | Print | Product List | Glossary Off
Versions: 1 2 3 4 5 6 7 8 9 10 11 12 13 14 15 16 17 18 19 20 21 22 23 24 25 26 27 28 29 30 31 32 33 34 35 36 37 38 39 40 41 42 43 44 45 46 47 48 49 50

000
ASUS43 KMPX 022301
RWRMN
WEATHER ROUNDUP FOR MINNESOTA
NATIONAL WEATHER SERVICE TWIN CITIES/CHANHASSEN MN
500 PM CST FRI DEC 02 2016


NOTE: "FAIR" INDICATES FEW OR NO CLOUDS BELOW 12,000 FEET WITH NO
SIGNIFICANT WEATHER AND/OR OBSTRUCTIONS TO VISIBILITY. N/A MEANS
CURRENT SKY AND/OR WEATHER CONDITIONS ARE NOT AVAILABLE.

MNZ060>063-068>070-030000-
   Twin Cities Metro

CITY           SKY/WX    TMP DP  RH WIND       PRES   REMARKS
TWIN CITIES    CLOUDY    32  23  69 W7        30.28R WCI  26
ST PAUL        CLOUDY    32  24  72 W6        30.29R WCI  26
CRYSTAL        CLOUDY    32  23  69 W6        30.27R WCI  26
BLAINE         CLOUDY    34  27  75 NW5       30.27R WCI  30
LAKEVILLE      CLOUDY    28  23  80 W7        30.28R WCI  21
EDEN PRAIRIE   CLOUDY    31  23  72 W9        30.27R WCI  23
SOUTH ST PAUL  CLOUDY    33  24  69 W5        30.28R WCI  28
LAKE ELMO      CLOUDY    32  28  86 W3        30.28R
$$
MNZ001>005-007-008-013>017-022>024-027-028-030000-
   Northwest Minnesota

CITY           SKY/WX    TMP DP  RH WIND       PRES   REMARKS
BEMIDJI        CLOUDY    24  19  83 CALM      30.23F
HALLOCK        MOCLDY    28  27  93 CALM      30.25S
ROSEAU         CLOUDY    27  21  80 CALM      30.24S
WARROAD        CLOUDY    25  21  86 NW3       30.24S
THIEF RVR FALL CLOUDY    28  22  78 VRB6      30.25S WCI  22
CROOKSTON      CLOUDY    30  21  69 NW5       30.27S WCI  25
FOSSTON        CLOUDY    25  19  80 NW6       30.25S WCI  18
DETROIT LAKES  CLOUDY    28  21  74 NW6       30.26S WCI  22
MOORHEAD       CLOUDY    28  21  74 NW5       30.29S WCI  23
PARK RAPIDS    CLOUDY    25  19  78 W9        30.23S WCI  15
$$
MNZ006-009>011-018-025>026-030000-
   North Central Minnesota

CITY           SKY/WX    TMP DP  RH WIND       PRES   REMARKS
BAUDETTE       CLOUDY    24  20  84 W7        30.23R WCI  16
FLAG ISLAND    CLOUDY    21  19  93 W9        30.23S WCI  11
INTL FALLS     CLOUDY    23  20  88 NW5       30.22S WCI  17
WASKISH        CLOUDY    25  21  86 W5        30.23S WCI  19
BIG FORK       CLOUDY    25  21  86 CALM      30.23R
LONGVILLE      CLOUDY    25  19  80 W7        30.24S WCI  17
GRAND RAPIDS   CLOUDY    25  22  88 W7        30.24S WCI  17
CRANE LAKE     CLOUDY    27  23  86 NW5       30.23S WCI  21
ORR            CLOUDY    25  21  86 CALM      30.18S
COOK           CLOUDY    27  23  86 W3        30.21S
$$
MNZ012-019>021-037-030000-
   Northeast Minnesota

CITY           SKY/WX    TMP DP  RH WIND       PRES   REMARKS
DULUTH         CLOUDY    29  23  78 NW6       30.19S WCI  23
ELY            CLOUDY    25  23  93 CALM      30.20R
HIBBING        CLOUDY    25  23  92 NW7       30.21R WCI  17
EVELETH        CLOUDY    28  24  85 W6        30.22R WCI  21
DULUTH HARBOR  CLOUDY    32  25  74 CALM      30.25S
TWO HARBORS    MOCLDY    30  25  80 NW5       30.20R WCI  25
SILVER BAY     CLOUDY    28  27  93 CALM      30.19S
GRAND MARAIS     N/A     33  25  72 CALM      30.21R
G MARAIS ARPRT CLOUDY    25  19  80 W3        30.16R
$$
MNZ029>031-032-039>041-046>048-054>057-064-030000-
   West Central Minnesota

CITY           SKY/WX    TMP DP  RH WIND       PRES   REMARKS
FERGUS FALLS   CLOUDY    27  19  74 NW8       30.32S WCI  18
WHEATON        CLOUDY   N/A N/A N/A CALM      30.32R
MORRIS         CLOUDY    28  21  74 W9        30.29R WCI  20
ALEXANDRIA     CLOUDY    26  22  84 W8        30.27R WCI  18
ELBOW LAKE     CLOUDY    26  20  79 NW7       30.29R WCI  18
WADENA         CLOUDY    25  21  86 W7        30.25R WCI  17
GLENWOOD       CLOUDY    27  21  80 W5        30.27S WCI  21
APPLETON       CLOUDY    28  21  74 N5        30.30S WCI  23
BENSON         CLOUDY    28  19  69 N7        30.29S WCI  21
ORTONVILLE     CLOUDY    28  21  74 CALM      30.30R
MADISON        CLOUDY    30  25  80 NW5       30.30S WCI  25
WILLMAR        CLOUDY    30  23  74 NW5       30.30S WCI  25
$$
MNZ033>034-036-042>043-049>051-058-059-030000-
   Central Minnesota

CITY           SKY/WX    TMP DP  RH WIND       PRES   REMARKS
ST CLOUD       CLOUDY    29  23  78 NW7       30.27R WCI  22
PAYNESVILLE    CLOUDY    29  24  83 W9        30.29R WCI  20
AITKIN         CLOUDY    28  21  74 CALM      30.23R
PINE RIVER     CLOUDY    25  21  86 NW6       30.27S WCI  18
BRAINERD       CLOUDY    26  21  81 N6        30.25R WCI  19
STAPLES        CLOUDY    25  21  86 NW3       30.25S
LONG PRAIRIE   CLOUDY    27  21  80 W6        30.26S WCI  20
LITTLE FALLS   CLOUDY    28  21  74 NW5       30.26S WCI  23
LITCHFIELD     CLOUDY    30  25  80 W6        30.28S WCI  24
BUFFALO        CLOUDY    31  25  78 W7        30.29R WCI  24
MAPLE LAKE     CLOUDY    32  27  82 CALM      30.28R
$$
MNZ037-044-045-052-053-030000-
   East Central Minnesota

CITY           SKY/WX    TMP DP  RH WIND       PRES   REMARKS
PRINCETON      CLOUDY    30  25  80 W5        30.27R WCI  25
MORA           CLOUDY    30  23  74 W5        30.27R WCI  25
CAMBRIDGE      CLOUDY    30  21  69 CALM      30.26R
RUSH CITY      CLOUDY    30  25  80 W5        30.26R WCI  25
MOOSE LAKE     CLOUDY    30  23  74 W3        30.21S
HINCKLEY       CLOUDY    30  27  86 CALM      30.25R
CLOQUET        CLOUDY    28  23  80 W5        30.21S WCI  23
MCGREGOR       CLOUDY    30  27  86 W5        30.23S WCI  25
$$
MNZ071>073-080-081-089-090-097-098-030000-
   Southwest Minnesota

CITY           SKY/WX    TMP DP  RH WIND       PRES   REMARKS
MONTEVIDEO     CLOUDY    28  28 100 N3        30.32R
GRANITE FALLS  CLOUDY    30  24  77 NW7       30.32R WCI  23
CANBY          CLOUDY    29  22  74 CALM      30.31R
MARSHALL       CLOUDY    29  23  78 W9        30.30R WCI  20
REDWOOD FALLS  CLOUDY    29  20  69 N6        30.29S WCI  23
OLIVIA         MOCLDY    30  23  74 NW6       30.29S WCI  24
PIPESTONE      CLOUDY    28  25  86 NW9       30.27R WCI  20
WINDOM         CLOUDY    30  25  80 CALM      30.28S
WORTHINGTON    CLOUDY    30  25  81 W9        30.28S WCI  22
JACKSON        CLOUDY    30  23  74 CALM      30.28S
TRACY          CLOUDY    30  26  84 NW6       30.29R WCI  24
SLAYTON        CLOUDY    29  23  78 W10G17    30.28R WCI  20
$$
MNZ065>067-074>077-082>085-091>093-030000-
   South Central Minnesota

CITY           SKY/WX    TMP DP  RH WIND       PRES   REMARKS
MANKATO        CLOUDY    29  21  72 W9        30.30R WCI  20
NEW ULM        CLOUDY    28  19  69 NW9       30.30S WCI  20
ST JAMES       CLOUDY    30  25  80 W3        30.31S
FAIRMONT       CLOUDY    30  24  78 NW8       30.30S WCI  22
GLENCOE        CLOUDY    30  25  81 SW6       30.28S WCI  24
FARIBAULT      CLOUDY    28  23  80 W8        30.29R WCI  20
OWATONNA       CLOUDY    28  21  74 W8        30.29S WCI  20
WASECA         CLOUDY    30  23  74 W8        30.30S WCI  23
ALBERT LEA     CLOUDY    34  27  75 NW7       30.29R WCI  28
$$
MNZ078>079-086>088-094>096-030000-
   Southeast Minnesota

CITY           SKY/WX    TMP DP  RH WIND       PRES   REMARKS
ROCHESTER      CLOUDY    29  22  75 W12       30.28R WCI  19
RED WING       CLOUDY    34  23  64 W6        30.27R WCI  29
STANTON        CLOUDY    32  24  71 W8        30.27R WCI  25
DODGE CENTER   CLOUDY    28  21  74 NW6       30.27R WCI  22
WINONA         CLOUDY    34  25  69 NW6       30.29R WCI  29
AUSTIN         CLOUDY    28  23  80 W10       30.28S WCI  19
PRESTON        CLOUDY    29  21  74 W6        30.28R WCI  23
$$
ABBREVIATIONS USED IN REMARKS
   TC - TEMPERATURES IN CELSIUS
  WCI - WIND CHILL INDEX
   HX - HEAT INDEX
  VSB - VISIBILITY
$$




USA.gov is the U.S. government's official web portal to all federal, state and local government web resources and services.